Regional Weather Roundup
Issued by NWS Boston, MA

Current Version | Previous Version | Text Only | Print | Product List | Glossary On
Versions: 1 2 3 4 5 6 7 8 9 10 11 12 13 14 15 16 17 18 19 20 21 22 23 24 25 26 27 28 29 30 31 32 33 34 35 36 37 38 39 40 41 42 43 44 45 46 47 48 49 50
000 ASUS41 KBOX 011510 RWRBOX REGIONAL WEATHER ROUNDUP NATIONAL WEATHER SERVICE TAUNTON MA 1100 AM EDT FRI AUG 01 2014 NOTE: "FAIR" INDICATES FEW OR NO CLOUDS BELOW 12,000 FEET WITH NO SIGNIFICANT WEATHER AND/OR OBSTRUCTIONS TO VISIBILITY. THE FOLLOWING OBSERVATION LOCATIONS DO NOT REPORT PRESENT WEATHER...PROVINCETOWN... SMITHFIELD...BLOCK ISLAND...KEENE...AND OXFORD. MAZALL-011600- EASTERN MASSACHUSETTS CITY SKY/WX TMP DP RH WIND PRES REMARKS BOSTON PTSUNNY 76 66 71 E8 30.22R BEVERLY PTSUNNY 79 65 62 CALM 30.21S LAWRENCE SUNNY 78 65 63 CALM 30.23S BEDFORD MOSUNNY 78 66 66 S5 30.20S BLUE HILL N/A 78 65 63 S6 30.23R NORWOOD SUNNY 80 66 62 VRB3 30.21S MARSHFIELD MOSUNNY 72 66 83 SE6 30.25R PLYMOUTH MOSUNNY 79 66 64 VRB6 30.24R TAUNTON MOSUNNY 80 68 66 VRB3 30.22R NEW BEDFORD PTSUNNY 78 69 73 S12 30.23R $$ MAZALL-011600- CAPE COD AND THE ISLANDS CITY SKY/WX TMP DP RH WIND PRES REMARKS FALMOUTH MOSUNNY 77 68 73 VRB7 30.24S HYANNIS MOSUNNY 75 66 73 S10 30.23S CHATHAM PTSUNNY 76 65 68 S10 30.26R PROVINCETOWN PTSUNNY 77 68 73 S7 30.25R NANTUCKET PTSUNNY 72 65 78 S8 30.26R MARTHAS VNYRD MOSUNNY 75 67 76 S10 30.25R $$ MAZALL-011600- CENTRAL AND WESTERN MASSACHUSETTS CITY SKY/WX TMP DP RH WIND PRES REMARKS WORCESTER MOSUNNY 76 64 66 VRB6 30.25R FITCHBURG MOSUNNY 81 63 54 W6 30.22S ORANGE SUNNY 77 64 64 S5 30.21F SPRINGFIELD SUNNY 78 67 68 VRB3 30.20S WESTFIELD MOSUNNY 79 67 66 S7 30.20S NORTH ADAMS PTSUNNY 75 65 70 CALM 30.21S PITTSFIELD MOSUNNY 73 65 75 CALM 30.22S $$ RIZALL-011600- RHODE ISLAND CITY SKY/WX TMP DP RH WIND PRES REMARKS PROVIDENCE PTSUNNY 76 67 73 SE7 30.24R NEWPORT PTSUNNY 76 68 76 S10 30.24R BLOCK ISLAND PTSUNNY 75 66 73 S9 30.25S SMITHFIELD SUNNY 77 64 65 S5 30.23S WESTERLY MOSUNNY 75 68 78 SE7 30.23S $$ CTZALL-011600- CONNECTICUT CITY SKY/WX TMP DP RH WIND PRES REMARKS BRADLEY INTL MOSUNNY 80 65 59 S8 30.20S HARTFORD MOSUNNY 79 66 64 S5 30.20R BRIDGEPORT PTSUNNY 76 68 76 S6 30.20R DANBURY MOSUNNY 79 67 66 VRB3 30.21S GROTON PTSUNNY 74 69 85 S6 30.21S NEW HAVEN PTSUNNY 78 68 71 S7 30.21R CHESTER FAIR 79 66 65 W3 30.23R MERIDEN PTSUNNY 82 65 56 VRB5 30.20S WILLIMANTIC MOSUNNY 78 67 68 VRB5 30.22S OXFORD MOSUNNY 79 66 65 W5 30.24R $$ MEZ002-015-021-024-NHZ003-005-008-011-012-014-VTZ005-008-011600- NORTHERN NEW ENGLAND CITY SKY/WX TMP DP RH WIND PRES REMARKS PORTLAND ME MOSUNNY 76 65 68 E6 30.22R BANGOR ME MOSUNNY 74 63 68 VRB5 30.23S CONCORD NH CLOUDY 65 63 93 CALM 30.23S MANCHESTER NH MOSUNNY 74 65 73 CALM 30.21S NASHUA NH SUNNY 78 66 66 CALM 30.22S PORTSMOUTH NH MOSUNNY 75 66 72 W5 30.21S JAFFREY NH SUNNY 74 64 71 S7 30.24S KEENE NH MOSUNNY 72 59 64 CALM 30.22F BURLINGTON VT SUNNY 76 62 62 S13 30.16S MT. WASHINGTON PTSUNNY 48 45 87 W25 N/A $$ NYZ052-076-011600- EASTERN NEW YORK CITY SKY/WX TMP DP RH WIND PRES REMARKS ALBANY PTSUNNY 73 64 73 SE7 30.20R NEW YORK CITY PTSUNNY 82 67 60 CALM 30.19R $$ ANZALL-011600- MARINE OBSERVATIONS STATION/POSITION TIME TEMP WIND PRES VSBY WAVE AIR SEA DIR/SP/G HT/PER (UTC) (F) (DEG/KT/KT) (MB) (MI) (FT/S) BOSTON BUOY NOT AVBL BUZZARDS BAY NOT AVBL NANTUCKET SOUND NOT AVBL MASS BAY-STELLWA NOT AVBL ISLE OF SHOALS NOT AVBL S OF BLOCK IS NOT AVBL $$ ......................KEY......................... SKY/WX - SKY CONDITION/PRESENT WEATHER TMP - TEMPERATURE IN FAHRENHEIT DWPT - DEWPOINT IN FAHRENHEIT RH - RELATIVE HUMIDITY IN PERCENT WIND - DIRECTION AND SPEED IN MPH PRES - MEAN SEA LEVEL PRESSURE IN INCHES OF HG WCI - WIND CHILL INDEX VSB - VISIBILITY IN MILES HX - HEAT INDEX TC - TEMPERATURE IN CELSIUS VRB - VARIABLE WIND DIRECTION N/A - NOT AVAILABLE

USA.gov is the U.S. government's official web portal to all federal, state and local government web resources and services.